This demonstration page uses our WeatherBlox Daily Observations layout. Learn more.

Left ArrowRight Arrow

39.29038, -76.61219

Hourly Observations for May 1, 2017

Temp ( °F °C ) Dew Point ( °F °C ) Humidity (%) Winds ( mph kmh ) Pressure ( in mb ) Visibility ( mi km ) Precip ( " mm )
12:54 am 00:54 undefined 61 16.1 54 12.2 78 78 undefined N/A 30.05 1018 N/A N/A
1:54 am 01:54 undefined 60 15.6 54 12.2 80 80 undefined N/A 30.03 1017 N/A N/A
2:54 am 02:54 undefined 60 15.6 55 12.8 84 84 undefined N/A 30.01 1016 N/A N/A
3:54 am 03:54 undefined 60 15.6 55 12.8 84 84 undefined N/A 29.99 1016 N/A N/A
4:54 am 04:54 undefined 60 15.6 56 13.3 86 86 undefined N/A 29.98 1015 N/A N/A
5:54 am 05:54 undefined 61 16.1 57 13.9 87 87 undefined N/A 29.96 1015 N/A N/A
6:54 am 06:54 undefined 61 16.1 58 14.4 90 90 undefined N/A 29.97 1015 N/A N/A
7:54 am 07:54 undefined 63 17.2 59 15 87 87 undefined N/A 29.96 1015 N/A N/A
8:54 am 08:54 undefined 66 18.9 60 15.6 81 81 undefined N/A 29.94 1014 N/A N/A
9:54 am 09:54 undefined 71 21.7 63 17.2 76 76 undefined N/A 29.93 1013 N/A N/A
10:54 am 10:54 undefined 76 24.4 63 17.2 64 64 undefined N/A 29.92 1013 N/A N/A
11:54 am 11:54 undefined 78 25.6 63 17.2 60 60 undefined N/A 29.89 1012 N/A N/A
12:54 pm 12:54 undefined 80 26.7 63 17.2 56 56 undefined N/A 29.87 1012 N/A N/A
1:54 pm 13:54 undefined 82 27.8 64 17.8 55 55 undefined N/A 29.83 1010 N/A N/A
2:54 pm 14:54 undefined 82 27.8 62 16.7 51 51 undefined N/A 29.80 1009 N/A N/A
3:54 pm 15:54 undefined 84 28.9 62 16.7 48 48 undefined N/A 29.75 1008 N/A N/A
4:54 pm 16:54 undefined 83 28.3 63 17.2 51 51 undefined N/A 29.71 1006 N/A N/A
5:54 pm 17:54 undefined 82 27.8 63 17.2 53 53 undefined N/A 29.69 1005 N/A N/A
6:54 pm 18:54 undefined 80 26.7 63 17.2 56 56 undefined N/A 29.68 1005 N/A N/A
7:54 pm 19:54 undefined 72 22.2 62 16.7 71 71 undefined N/A 30.05 1018 N/A N/A
8:54 pm 20:54 undefined 77 25 64 17.8 64 64 undefined N/A 29.66 1005 N/A N/A
9:54 pm 21:54 undefined 78 25.6 63 17.2 60 60 undefined N/A 29.65 1004 N/A N/A
10:54 pm 22:54 undefined 78 25.6 62 16.7 58 58 undefined N/A 29.63 1004 N/A N/A
11:54 pm 23:54 undefined 77 25 62 16.7 60 60 undefined N/A 29.62 1003 N/A N/A

Powered by AerisWeather